SBI5723 UNNT-ZBAD

Flight info

Callsign SBI5723
Flight time N/A
Altitude 33000
Route OGATI A308 LEKOS P982 TR A308 GINOM/K0828S1005 Y655 INTIK A575 LHT B458 PUKOL W64 ELAPU
Aircraft A321/M-SDFGJ1IYRW/LB1

Departure

Time 2026-05-08 06:09
Airport Novosibirsk Tolmachevo Airport (UNNT)

Arrival

Time N/A
Airport Beijing Daxing International Airport (ZBAD)
Time Latitude Longitude Altitude Speed Heading
2026-05-08 04:52 55.01031 82.67046 376 ft 0 kts 171°
2026-05-08 05:59 55.01037 82.67045 373 ft 4 kts 168°
2026-05-08 05:59 55.01062 82.67031 373 ft 4 kts 146°
2026-05-08 06:00 55.01079 82.67000 373 ft 4 kts 108°
2026-05-08 06:00 55.01082 82.66968 373 ft 0 kts 81°
2026-05-08 06:03 55.01082 82.66971 373 ft 1 kts 81°
2026-05-08 06:03 55.01084 82.66987 373 ft 2 kts 81°
2026-05-08 06:03 55.01088 82.67035 373 ft 6 kts 82°
2026-05-08 06:03 55.01096 82.67141 373 ft 10 kts 82°
2026-05-08 06:04 55.01106 82.67256 373 ft 9 kts 83°
2026-05-08 06:04 55.01108 82.67351 373 ft 7 kts 90°
2026-05-08 06:04 55.01111 82.67426 373 ft 5 kts 76°
2026-05-08 06:04 55.01128 82.67468 373 ft 3 kts 40°
2026-05-08 06:05 55.01152 82.67493 373 ft 6 kts 30°
2026-05-08 06:05 55.01204 82.67547 373 ft 10 kts 31°
2026-05-08 06:05 55.01258 82.67604 373 ft 8 kts 31°
2026-05-08 06:05 55.01304 82.67652 373 ft 7 kts 31°
2026-05-08 06:06 55.01344 82.67692 373 ft 6 kts 31°
2026-05-08 06:06 55.01381 82.67732 372 ft 7 kts 31°
2026-05-08 06:06 55.01426 82.67777 372 ft 8 kts 26°
2026-05-08 06:06 55.01479 82.67780 371 ft 5 kts 340°
2026-05-08 06:07 55.01488 82.67741 371 ft 3 kts 260°
2026-05-08 06:07 55.01486 82.67725 371 ft 0 kts 260°
2026-05-08 06:08 55.01470 82.67555 371 ft 45 kts 261°
2026-05-08 06:08 55.01386 82.66635 374 ft 106 kts 261°
2026-05-08 06:08 55.01243 82.65062 373 ft 154 kts 261°
2026-05-08 06:08 55.01050 82.63004 507 ft 181 kts 259°
2026-05-08 06:09 55.00846 82.60821 1096 ft 184 kts 261°
2026-05-08 06:09 55.00641 82.58633 1777 ft 181 kts 261°
2026-05-08 06:09 55.00440 82.56449 2294 ft 186 kts 262°
2026-05-08 06:09 55.00256 82.54187 2872 ft 190 kts 264°
2026-05-08 06:10 55.00508 82.51877 3032 ft 208 kts 306°
2026-05-08 06:10 55.01713 82.50447 3300 ft 221 kts 347°
2026-05-08 06:10 55.03260 82.50262 3808 ft 226 kts
2026-05-08 06:10 55.04874 82.50425 4237 ft 236 kts
2026-05-08 06:11 55.06524 82.50655 4895 ft 238 kts
2026-05-08 06:11 55.08182 82.50857 5518 ft 240 kts
2026-05-08 06:11 55.09859 82.51016 6166 ft 242 kts
2026-05-08 06:11 55.11478 82.51622 6765 ft 246 kts 28°
2026-05-08 06:12 55.12680 82.53738 7316 ft 252 kts 64°
2026-05-08 06:12 55.13137 82.56726 7899 ft 257 kts 78°
2026-05-08 06:12 55.13459 82.59818 8488 ft 261 kts 79°
2026-05-08 06:12 55.13777 82.62955 9101 ft 263 kts 79°
2026-05-08 06:13 55.13966 82.66151 9633 ft 268 kts 98°
2026-05-08 06:13 55.13246 82.69124 10160 ft 271 kts 133°
2026-05-08 06:13 55.11688 82.70891 10627 ft 270 kts 167°
2026-05-08 06:13 55.09837 82.71514 11158 ft 272 kts 173°
2026-05-08 06:14 55.07960 82.71992 11683 ft 274 kts 174°
2026-05-08 06:14 55.06064 82.72441 12234 ft 276 kts 174°
2026-05-08 06:14 55.04156 82.72896 12779 ft 278 kts 174°
2026-05-08 06:14 55.02235 82.73367 13325 ft 280 kts 174°
2026-05-08 06:15 55.00300 82.73864 13854 ft 282 kts 174°
2026-05-08 06:15 54.98359 82.74389 14316 ft 284 kts 174°
2026-05-08 06:15 54.96420 82.74930 14777 ft 287 kts 174°
2026-05-08 06:15 54.94417 82.75503 15247 ft 289 kts 171°
2026-05-08 06:16 54.92568 82.76822 15650 ft 297 kts 144°
2026-05-08 06:16 54.91200 82.79535 16035 ft 305 kts 117°
2026-05-08 06:16 54.90678 82.83160 16164 ft 319 kts 86°
2026-05-08 06:16 54.91024 82.87030 16295 ft 332 kts 77°
2026-05-08 06:17 54.91997 82.95211 16557 ft 360 kts 77°
2026-05-08 06:17 54.92505 82.99550 16694 ft 373 kts 77°
2026-05-08 06:17 54.92984 83.04074 16821 ft 386 kts 83°
2026-05-08 06:18 54.93024 83.08812 16953 ft 398 kts 93°
2026-05-08 06:18 54.92854 83.13679 17089 ft 409 kts 93°
2026-05-08 06:18 54.92685 83.18668 17226 ft 418 kts 93°
2026-05-08 06:18 54.92516 83.23770 17464 ft 424 kts 93°
2026-05-08 06:19 54.92344 83.28899 17772 ft 427 kts 93°
2026-05-08 06:19 54.92172 83.33993 18088 ft 430 kts 93°
2026-05-08 06:19 54.91978 83.39195 18394 ft 432 kts 94°
2026-05-08 06:19 54.91757 83.44419 18676 ft 434 kts 94°
2026-05-08 06:20 54.91518 83.49667 18960 ft 437 kts 94°
2026-05-08 06:20 54.91274 83.54937 19252 ft 439 kts 94°
2026-05-08 06:20 54.91029 83.60234 19551 ft 441 kts 94°
2026-05-08 06:21 54.90060 83.81007 20714 ft 450 kts 94°
2026-05-08 06:21 54.89808 83.86443 21018 ft 452 kts 94°
2026-05-08 06:22 54.89554 83.91904 21329 ft 454 kts 94°
2026-05-08 06:22 54.89295 83.97385 21637 ft 457 kts 94°
2026-05-08 06:22 54.89029 84.02902 21943 ft 459 kts 94°
2026-05-08 06:22 54.88761 84.08441 22244 ft 461 kts 94°
2026-05-08 06:23 54.88488 84.14001 22545 ft 463 kts 94°
2026-05-08 06:23 54.88211 84.19589 22834 ft 466 kts 94°
2026-05-08 06:23 54.87931 84.25203 23144 ft 468 kts 95°
2026-05-08 06:23 54.87647 84.30850 23440 ft 470 kts 95°
2026-05-08 06:24 54.87358 84.36516 23697 ft 472 kts 95°
2026-05-08 06:24 54.87064 84.42203 23941 ft 474 kts 95°
2026-05-08 06:24 54.86762 84.47911 24180 ft 476 kts 95°
2026-05-08 06:24 54.86455 84.53644 24411 ft 478 kts 95°
2026-05-08 06:25 54.86146 84.59394 24658 ft 479 kts 95°
2026-05-08 06:25 54.85837 84.65091 24894 ft 481 kts 95°
2026-05-08 06:25 54.85525 84.70888 25125 ft 483 kts 95°
2026-05-08 06:25 54.85221 84.76718 25354 ft 485 kts 95°
2026-05-08 06:26 54.84922 84.82550 25580 ft 487 kts 95°
2026-05-08 06:26 54.84618 84.88418 25802 ft 488 kts 96°
2026-05-08 06:26 54.84311 84.94296 26020 ft 490 kts 96°
2026-05-08 06:26 54.83998 85.00197 26230 ft 492 kts 96°
2026-05-08 06:27 54.83682 85.06123 26425 ft 494 kts 96°
2026-05-08 06:27 54.83362 85.12056 26642 ft 496 kts 96°
2026-05-08 06:27 54.83035 85.18026 26811 ft 497 kts 96°
2026-05-08 06:27 54.82701 85.24002 26992 ft 499 kts 96°
2026-05-08 06:28 54.82362 85.29999 27166 ft 500 kts 96°
2026-05-08 06:28 54.82014 85.36015 27326 ft 502 kts 97°
2026-05-08 06:28 54.81654 85.42037 27481 ft 503 kts 97°
2026-05-08 06:28 54.81284 85.48079 27631 ft 505 kts 97°
2026-05-08 06:29 54.80907 85.54123 27850 ft 504 kts 97°
2026-05-08 06:29 54.80527 85.60165 28062 ft 504 kts 97°
2026-05-08 06:29 54.80147 85.66208 28266 ft 504 kts 97°
2026-05-08 06:29 54.79765 85.72251 28471 ft 504 kts 97°
2026-05-08 06:30 54.79381 85.78299 28662 ft 505 kts 97°
2026-05-08 06:30 54.78993 85.84339 28858 ft 505 kts 98°
2026-05-08 06:30 54.78343 85.90213 29043 ft 503 kts 107°
2026-05-08 06:30 54.77216 85.95921 29225 ft 500 kts 116°
2026-05-08 06:31 54.75737 86.01359 29393 ft 499 kts 118°
2026-05-08 06:31 54.74233 86.06767 29585 ft 499 kts 118°
2026-05-08 06:31 54.72729 86.12192 29777 ft 500 kts 118°
2026-05-08 06:31 54.71228 86.17613 29960 ft 500 kts 118°
2026-05-08 06:32 54.69727 86.23035 30132 ft 500 kts 118°
2026-05-08 06:32 54.68224 86.28454 30295 ft 500 kts 118°
2026-05-08 06:32 54.66717 86.33866 30454 ft 500 kts 118°
2026-05-08 06:32 54.65202 86.39280 30638 ft 500 kts 119°
2026-05-08 06:33 54.63684 86.44676 30803 ft 499 kts 119°
2026-05-08 06:33 54.62163 86.50066 30991 ft 499 kts 119°
2026-05-08 06:33 54.60640 86.55445 31158 ft 499 kts 119°
2026-05-08 06:33 54.59116 86.60818 31339 ft 499 kts 119°
2026-05-08 06:34 54.57594 86.66181 31517 ft 498 kts 119°
2026-05-08 06:34 54.56074 86.71538 31706 ft 498 kts 119°
2026-05-08 06:34 54.54548 86.76905 31887 ft 497 kts 119°
2026-05-08 06:34 54.53026 86.82243 32077 ft 497 kts 119°
2026-05-08 06:35 54.51503 86.87573 32269 ft 496 kts 119°
2026-05-08 06:35 54.49976 86.92900 32448 ft 496 kts 119°
2026-05-08 06:35 54.48447 86.98209 32629 ft 495 kts 119°
2026-05-08 06:35 54.46936 87.03441 32814 ft 495 kts 119°
2026-05-08 06:36 54.45407 87.08725 32971 ft 494 kts 119°
2026-05-08 06:36 54.43875 87.14000 33005 ft 492 kts 119°
2026-05-08 06:36 54.40818 87.24484 33009 ft 491 kts 119°
2026-05-08 06:37 54.37753 87.34951 33004 ft 491 kts 119°
2026-05-08 06:37 54.34685 87.45392 33009 ft 490 kts 119°
2026-05-08 06:38 54.31603 87.55823 33002 ft 490 kts 120°
2026-05-08 06:38 54.28518 87.66229 33001 ft 490 kts 120°
2026-05-08 06:39 54.25445 87.76559 33009 ft 490 kts 120°
2026-05-08 06:39 54.22343 87.86940 33011 ft 490 kts 120°
2026-05-08 06:40 54.19232 87.97297 32998 ft 490 kts 120°
2026-05-08 06:40 54.16108 88.07649 32998 ft 490 kts 120°
2026-05-08 06:41 54.12981 88.17983 32998 ft 491 kts 120°
2026-05-08 06:41 54.09845 88.28313 32998 ft 491 kts 120°
2026-05-08 06:42 54.06690 88.38616 33007 ft 490 kts 120°
2026-05-08 06:42 54.03525 88.48901 33004 ft 490 kts 120°
2026-05-08 06:43 54.00363 88.59172 32989 ft 491 kts 120°
2026-05-08 06:43 53.97187 88.69444 33008 ft 491 kts 120°
2026-05-08 06:44 53.94002 88.79684 33011 ft 491 kts 120°
2026-05-08 06:44 53.90792 88.89911 33008 ft 491 kts 120°
2026-05-08 06:45 53.87557 89.00105 32985 ft 491 kts 120°
2026-05-08 06:45 53.84306 89.10284 32988 ft 491 kts 121°
2026-05-08 06:46 53.81046 89.20451 32997 ft 492 kts 120°
2026-05-08 06:46 53.77781 89.30613 32974 ft 492 kts 120°
2026-05-08 06:47 53.74514 89.40780 32982 ft 492 kts 120°
2026-05-08 06:47 53.71232 89.50925 32984 ft 493 kts 120°
2026-05-08 06:48 53.67955 89.61008 32979 ft 493 kts 120°
2026-05-08 06:48 53.64616 89.71212 32981 ft 494 kts 120°
2026-05-08 06:49 53.61299 89.81343 32982 ft 495 kts 120°
2026-05-08 06:49 53.57991 89.91418 32981 ft 495 kts 120°
2026-05-08 06:50 53.54637 90.01543 32983 ft 495 kts 120°
2026-05-08 06:50 53.51274 90.11646 32978 ft 496 kts 120°
2026-05-08 06:51 53.47908 90.21747 32980 ft 496 kts 120°
2026-05-08 06:51 53.44537 90.31841 32982 ft 496 kts 120°
2026-05-08 06:52 53.41131 90.41987 32987 ft 496 kts 120°
2026-05-08 06:52 53.37750 90.51984 32992 ft 496 kts 120°
2026-05-08 06:53 53.34333 90.62039 32996 ft 497 kts 120°
2026-05-08 06:53 53.30909 90.72078 32996 ft 497 kts 120°
2026-05-08 06:54 53.27480 90.82122 32992 ft 498 kts 120°
2026-05-08 06:54 53.24042 90.92156 32993 ft 498 kts 120°
2026-05-08 06:55 53.20579 91.02196 32994 ft 499 kts 120°
2026-05-08 06:55 53.17104 91.12237 32991 ft 500 kts 120°
2026-05-08 06:56 53.13618 91.22276 32995 ft 501 kts 120°
2026-05-08 06:56 53.10112 91.32309 33002 ft 501 kts 120°
2026-05-08 06:57 53.06604 91.42341 33010 ft 502 kts 120°
2026-05-08 06:57 53.03083 91.52346 33019 ft 501 kts 120°
2026-05-08 06:58 52.99550 91.62333 33021 ft 502 kts 120°
2026-05-08 06:58 52.96004 91.72314 33021 ft 501 kts 120°
2026-05-08 06:59 52.92459 91.82267 33014 ft 501 kts 120°
2026-05-08 06:59 52.88911 91.92197 33014 ft 501 kts 120°
2026-05-08 07:00 52.85343 92.02106 33016 ft 501 kts 120°
2026-05-08 07:00 52.81797 92.11936 33017 ft 501 kts 120°
2026-05-08 07:01 52.78229 92.21819 33016 ft 501 kts 120°
2026-05-08 07:01 52.74654 92.31686 33007 ft 500 kts 120°
2026-05-08 07:02 52.71072 92.41516 33011 ft 500 kts 120°
2026-05-08 07:02 52.67471 92.51330 33018 ft 500 kts 121°
2026-05-08 07:03 52.63860 92.61126 33021 ft 500 kts 120°
2026-05-08 07:03 52.60260 92.70898 33021 ft 499 kts 120°
2026-05-08 07:04 52.56662 92.80651 33013 ft 499 kts 120°
2026-05-08 07:04 52.53042 92.90387 33023 ft 499 kts 121°
2026-05-08 07:05 52.49415 93.00088 33015 ft 498 kts 121°
2026-05-08 07:05 52.46390 93.08131 33018 ft 499 kts 121°
2026-05-08 07:06 52.42757 93.17805 33013 ft 498 kts 121°
2026-05-08 07:06 52.39120 93.27471 33008 ft 498 kts 121°
2026-05-08 07:07 52.35462 93.37102 33012 ft 498 kts 121°
2026-05-08 07:07 52.31800 93.46726 33007 ft 498 kts 121°
2026-05-08 07:08 52.28137 93.56340 33004 ft 498 kts 121°
2026-05-08 07:08 52.24465 93.65936 33006 ft 499 kts 121°
2026-05-08 07:09 52.20772 93.75509 33009 ft 499 kts 121°
2026-05-08 07:09 52.17070 93.85074 33006 ft 499 kts 121°
2026-05-08 07:10 52.13772 93.94982 33015 ft 497 kts 111°
2026-05-08 07:10 52.11043 94.05239 33008 ft 497 kts 111°
2026-05-08 07:11 52.08270 94.15533 33013 ft 498 kts 111°
2026-05-08 07:11 52.05481 94.25832 33017 ft 498 kts 111°
2026-05-08 07:12 52.02689 94.36132 33011 ft 498 kts 111°
2026-05-08 07:12 51.99889 94.46436 33017 ft 499 kts 112°
2026-05-08 07:13 51.97074 94.56709 33023 ft 499 kts 111°
2026-05-08 07:13 51.94247 94.66987 33025 ft 499 kts 111°
2026-05-08 07:14 51.91419 94.77246 33025 ft 499 kts 111°
2026-05-08 07:14 51.88579 94.87503 33028 ft 499 kts 111°
2026-05-08 07:15 51.85730 94.97737 33027 ft 499 kts 111°
2026-05-08 07:15 51.82874 95.07961 33030 ft 499 kts 111°
2026-05-08 07:16 51.80001 95.18166 33023 ft 498 kts 111°
2026-05-08 07:16 51.77151 95.28283 33014 ft 498 kts 111°
2026-05-08 07:17 51.74247 95.38510 33018 ft 498 kts 111°
2026-05-08 07:17 51.71374 95.48602 33021 ft 498 kts 111°
2026-05-08 07:18 51.68478 95.58753 33034 ft 498 kts 111°
2026-05-08 07:18 51.65549 95.68939 33016 ft 498 kts 111°
2026-05-08 07:19 51.62651 95.78987 33024 ft 498 kts 111°
2026-05-08 07:19 51.59730 95.89087 33017 ft 498 kts 111°
2026-05-08 07:20 51.56780 95.99246 33017 ft 498 kts 111°
2026-05-08 07:20 51.53855 96.09257 33014 ft 498 kts 111°
2026-05-08 07:21 51.50908 96.19324 33012 ft 498 kts 111°
2026-05-08 07:21 51.47948 96.29379 33010 ft 498 kts 111°
2026-05-08 07:22 51.44979 96.39427 33006 ft 498 kts 111°
2026-05-08 07:22 51.41990 96.49452 32998 ft 499 kts 111°
2026-05-08 07:23 51.38999 96.59483 33000 ft 500 kts 111°
2026-05-08 07:23 51.36001 96.69531 33001 ft 500 kts 111°
2026-05-08 07:24 51.32989 96.79561 33001 ft 501 kts 111°
2026-05-08 07:24 51.29961 96.89588 32994 ft 501 kts 111°
2026-05-08 07:25 51.26942 96.99552 32992 ft 502 kts 111°
2026-05-08 07:26 51.22362 97.14579 33007 ft 502 kts 111°
2026-05-08 07:26 51.19303 97.24580 33005 ft 502 kts 111°
2026-05-08 07:27 51.16232 97.34577 32992 ft 502 kts 111°
2026-05-08 07:27 51.13149 97.44537 32993 ft 502 kts 111°
2026-05-08 07:28 51.10058 97.54493 32999 ft 502 kts 111°
2026-05-08 07:28 51.06963 97.64455 32995 ft 501 kts 111°
2026-05-08 07:29 51.03861 97.74375 33006 ft 502 kts 111°
2026-05-08 07:29 51.00737 97.84278 33009 ft 501 kts 111°
2026-05-08 07:30 50.97172 97.93857 33015 ft 505 kts 117°
2026-05-08 07:30 50.93459 98.03295 33113 ft 504 kts 117°
2026-05-08 07:31 50.89747 98.12712 33120 ft 503 kts 117°
2026-05-08 07:31 50.86047 98.22094 33128 ft 503 kts 117°
2026-05-08 07:32 50.82314 98.31454 33132 ft 502 kts 118°
2026-05-08 07:32 50.78606 98.40720 33133 ft 502 kts 118°
2026-05-08 07:33 50.74875 98.50041 33135 ft 502 kts 118°
2026-05-08 07:33 50.71148 98.59331 33134 ft 501 kts 118°
2026-05-08 07:34 50.67413 98.68607 33130 ft 501 kts 118°
2026-05-08 07:34 50.63657 98.77849 33126 ft 500 kts 118°
2026-05-08 07:35 50.59920 98.87071 33111 ft 500 kts 118°
2026-05-08 07:35 50.56172 98.96288 33109 ft 499 kts 118°
2026-05-08 07:36 50.52419 99.05456 33099 ft 498 kts 118°
2026-05-08 07:36 50.48668 99.14589 33091 ft 497 kts 118°
2026-05-08 07:37 50.44916 99.23707 33100 ft 496 kts 118°
2026-05-08 07:37 50.41164 99.32772 33094 ft 495 kts 119°
2026-05-08 07:38 50.37400 99.41795 33096 ft 494 kts 118°
2026-05-08 07:38 50.33641 99.50815 33092 ft 494 kts 119°
2026-05-08 07:39 50.29892 99.59808 33089 ft 493 kts 119°
2026-05-08 07:39 50.26161 99.68708 33077 ft 493 kts 119°
2026-05-08 07:40 50.22405 99.77654 33073 ft 492 kts 119°
2026-05-08 07:40 50.18707 99.86420 33063 ft 492 kts 120°
2026-05-08 07:41 50.14944 99.95304 33051 ft 491 kts 120°
2026-05-08 07:41 50.11229 100.04042 33055 ft 490 kts 120°
2026-05-08 07:42 50.07664 100.12404 33080 ft 489 kts 120°
2026-05-08 07:42 50.03896 100.21208 33064 ft 489 kts 120°
2026-05-08 07:43 50.00126 100.29986 33058 ft 488 kts 120°
2026-05-08 07:43 49.96355 100.38751 33054 ft 487 kts 120°
2026-05-08 07:44 49.92596 100.47470 33051 ft 486 kts 121°
2026-05-08 07:44 49.88838 100.56130 33049 ft 485 kts 121°
2026-05-08 07:45 49.85080 100.64770 33049 ft 484 kts 121°
2026-05-08 07:45 49.81306 100.73431 33039 ft 483 kts 121°
2026-05-08 07:46 49.77580 100.81945 33034 ft 483 kts 121°
2026-05-08 07:46 49.73760 100.90622 33030 ft 482 kts 122°
2026-05-08 07:47 49.70039 100.99061 33027 ft 481 kts 122°
2026-05-08 07:47 49.66457 101.07157 33018 ft 480 kts 122°
2026-05-08 07:48 49.62737 101.15550 33023 ft 480 kts 122°
2026-05-08 07:48 49.58920 101.24144 33017 ft 480 kts 122°
2026-05-08 07:49 49.56006 101.30674 33020 ft 479 kts 122°
2026-05-08 07:49 49.52351 101.39238 32996 ft 477 kts 123°
2026-05-08 07:50 49.48495 101.47599 33004 ft 479 kts 124°
2026-05-08 07:50 49.44948 101.55265 33007 ft 477 kts 123°
2026-05-08 07:51 49.41226 101.63568 33018 ft 478 kts 123°
2026-05-08 07:51 49.37444 101.71970 33024 ft 477 kts 123°
2026-05-08 07:52 49.33699 101.80203 33025 ft 476 kts 123°
2026-05-08 07:52 49.29854 101.88617 33031 ft 475 kts 124°
2026-05-08 07:53 49.26105 101.96811 33033 ft 474 kts 124°
2026-05-08 07:53 49.22296 102.05105 33036 ft 474 kts 124°
2026-05-08 07:54 49.18489 102.13316 33038 ft 474 kts 125°
2026-05-08 07:54 49.14601 102.21417 33041 ft 474 kts 126°
2026-05-08 07:55 49.10661 102.29518 33042 ft 473 kts 126°
2026-05-08 07:55 49.06757 102.37556 33041 ft 473 kts 126°
2026-05-08 07:56 49.02886 102.45566 33042 ft 472 kts 126°
2026-05-08 07:56 48.98990 102.53616 33043 ft 472 kts 126°
2026-05-08 07:57 48.95073 102.61642 33034 ft 472 kts 126°
2026-05-08 07:57 48.91138 102.69669 33036 ft 472 kts 126°
2026-05-08 07:58 48.87889 102.76306 33021 ft 472 kts 126°
2026-05-08 07:58 48.83960 102.84314 33015 ft 472 kts 127°
2026-05-08 07:59 48.80025 102.92288 33017 ft 472 kts 127°
2026-05-08 07:59 48.76089 103.00261 33015 ft 472 kts 127°
2026-05-08 08:00 48.72161 103.08196 33018 ft 472 kts 127°
2026-05-08 08:00 48.68242 103.16072 33013 ft 471 kts 128°
2026-05-08 08:01 48.64267 103.24011 33009 ft 471 kts 128°
2026-05-08 08:01 48.60348 103.31833 33013 ft 470 kts 128°
2026-05-08 08:02 48.56403 103.39803 33006 ft 470 kts 127°
2026-05-08 08:02 48.52638 103.47870 33002 ft 470 kts 126°
2026-05-08 08:03 48.48923 103.55943 33001 ft 470 kts 126°
2026-05-08 08:03 48.45155 103.63994 33008 ft 469 kts 126°
2026-05-08 08:04 48.41383 103.71942 32998 ft 469 kts 127°
2026-05-08 08:04 48.37586 103.79898 33005 ft 469 kts 127°
2026-05-08 08:05 48.33765 103.87918 33006 ft 469 kts 127°
2026-05-08 08:05 48.29972 103.95882 32986 ft 469 kts 127°
2026-05-08 08:06 48.26164 104.03822 32986 ft 469 kts 127°
2026-05-08 08:06 48.22347 104.11742 32981 ft 468 kts 127°
2026-05-08 08:07 48.18528 104.19669 32983 ft 468 kts 127°
2026-05-08 08:07 48.14762 104.27490 32987 ft 468 kts 127°
2026-05-08 08:08 48.10908 104.35455 32985 ft 468 kts 127°
2026-05-08 08:08 48.07077 104.43332 32982 ft 467 kts 127°
2026-05-08 08:09 48.03275 104.51115 32977 ft 467 kts 128°
2026-05-08 08:09 47.99434 104.58965 32976 ft 467 kts 128°
2026-05-08 08:10 47.95590 104.66805 32981 ft 467 kts 128°
2026-05-08 08:10 47.91753 104.74624 32979 ft 467 kts 128°
2026-05-08 08:11 47.87909 104.82428 32976 ft 467 kts 128°
2026-05-08 08:11 47.84083 104.90159 32967 ft 466 kts 128°
2026-05-08 08:12 47.80232 104.97909 32966 ft 467 kts 128°
2026-05-08 08:12 47.76333 105.05675 32969 ft 466 kts 129°
2026-05-08 08:13 47.72391 105.13335 32970 ft 466 kts 129°
2026-05-08 08:13 47.68456 105.20905 32970 ft 466 kts 130°
2026-05-08 08:14 47.64510 105.28515 32966 ft 466 kts 130°
2026-05-08 08:14 47.60596 105.36080 32959 ft 466 kts 130°
2026-05-08 08:15 47.56616 105.43736 32957 ft 465 kts 130°
2026-05-08 08:15 47.52679 105.51292 32955 ft 465 kts 130°
2026-05-08 08:16 47.48765 105.58885 32954 ft 465 kts 129°
2026-05-08 08:16 47.44837 105.66517 32952 ft 465 kts 130°
2026-05-08 08:17 47.40901 105.74134 32951 ft 465 kts 130°
2026-05-08 08:17 47.36970 105.81684 32943 ft 464 kts 130°
2026-05-08 08:18 47.33081 105.89119 32939 ft 464 kts 130°
2026-05-08 08:18 47.29112 105.96719 32933 ft 464 kts 130°
2026-05-08 08:19 47.25182 106.04217 32932 ft 464 kts 130°
2026-05-08 08:19 47.21254 106.11685 32935 ft 464 kts 130°
2026-05-08 08:20 47.17303 106.19179 32941 ft 464 kts 130°
2026-05-08 08:20 47.13299 106.26763 32955 ft 464 kts 131°
2026-05-08 08:21 47.09374 106.34157 32955 ft 463 kts 131°
2026-05-08 08:21 47.05390 106.41647 32951 ft 463 kts 131°
2026-05-08 08:22 47.01508 106.48936 32944 ft 463 kts 131°
2026-05-08 08:22 46.97542 106.56353 32937 ft 463 kts 131°
2026-05-08 08:23 46.93568 106.63766 32927 ft 463 kts 131°
2026-05-08 08:23 46.89584 106.71193 32920 ft 463 kts 132°
2026-05-08 08:24 46.85710 106.78384 32911 ft 463 kts 132°
2026-05-08 08:24 46.81845 106.85449 32901 ft 460 kts 133°
2026-05-08 08:25 46.78068 106.92309 32904 ft 463 kts 133°
2026-05-08 08:25 46.74196 106.99303 32898 ft 463 kts 133°
2026-05-08 08:26 46.70153 107.06540 32891 ft 463 kts 133°
2026-05-08 08:26 46.66159 107.13688 32882 ft 463 kts 133°
2026-05-08 08:27 46.62137 107.20878 32871 ft 463 kts 133°
2026-05-08 08:27 46.58257 107.27795 32871 ft 463 kts 133°
2026-05-08 08:28 46.54174 107.35050 32863 ft 463 kts 133°
2026-05-08 08:28 46.50103 107.42276 32855 ft 463 kts 133°
2026-05-08 08:29 46.46098 107.49337 32845 ft 463 kts 134°
2026-05-08 08:29 46.42011 107.56549 32854 ft 464 kts 133°
2026-05-08 08:30 46.37963 107.63694 32843 ft 464 kts 133°
2026-05-08 08:30 46.31758 107.74584 32838 ft 464 kts 134°
2026-05-08 08:31 46.27732 107.81615 32829 ft 464 kts 134°
2026-05-08 08:31 46.23526 107.88970 32823 ft 464 kts 134°
2026-05-08 08:32 46.19568 107.95862 32816 ft 464 kts 134°
2026-05-08 08:32 46.15439 108.03020 32812 ft 465 kts 134°
2026-05-08 08:33 46.11556 108.09737 32805 ft 465 kts 134°
2026-05-08 08:33 46.07379 108.16931 32804 ft 465 kts 134°
2026-05-08 08:34 46.03261 108.24035 32795 ft 465 kts 134°
2026-05-08 08:34 45.99071 108.31240 32790 ft 466 kts 134°
2026-05-08 08:35 45.94926 108.38319 32787 ft 466 kts 134°
2026-05-08 08:35 45.90768 108.45425 32784 ft 466 kts 134°
2026-05-08 08:36 45.86582 108.52560 32780 ft 467 kts 134°
2026-05-08 08:36 45.82468 108.59575 32773 ft 467 kts 134°
2026-05-08 08:37 45.78186 108.66846 32769 ft 468 kts 134°
2026-05-08 08:37 45.74395 108.73256 32763 ft 469 kts 134°
2026-05-08 08:38 45.70236 108.80333 32766 ft 470 kts 133°
2026-05-08 08:38 45.66216 108.87174 32766 ft 470 kts 133°
2026-05-08 08:39 45.61920 108.94447 32766 ft 471 kts 134°
2026-05-08 08:39 45.57694 109.01593 32761 ft 471 kts 133°
2026-05-08 08:40 45.53518 109.08640 32757 ft 472 kts 134°
2026-05-08 08:40 45.49265 109.15777 32750 ft 472 kts 134°
2026-05-08 08:41 45.45031 109.22871 32757 ft 473 kts 134°
2026-05-08 08:41 45.40775 109.29988 32748 ft 474 kts 134°
2026-05-08 08:42 45.36474 109.37152 32763 ft 474 kts 134°
2026-05-08 08:42 45.32138 109.44369 32751 ft 474 kts 134°
2026-05-08 08:43 45.27869 109.51452 32759 ft 475 kts 134°
2026-05-08 08:43 45.23558 109.58585 32761 ft 476 kts 134°
2026-05-08 08:44 45.19299 109.65615 32766 ft 476 kts 134°
2026-05-08 08:44 45.14923 109.72824 32750 ft 476 kts 134°
2026-05-08 08:45 45.10585 109.79923 32750 ft 477 kts 134°
2026-05-08 08:45 45.06469 109.86665 32748 ft 478 kts 133°
2026-05-08 08:46 45.02154 109.93757 32752 ft 478 kts 133°
2026-05-08 08:46 44.97797 110.00862 32762 ft 478 kts 134°
2026-05-08 08:47 44.93429 110.07946 32764 ft 478 kts 134°
2026-05-08 08:47 44.89050 110.14997 32765 ft 477 kts 135°
2026-05-08 08:48 44.84526 110.21839 32764 ft 476 kts 137°
2026-05-08 08:48 44.79925 110.28551 32760 ft 475 kts 137°
2026-05-08 08:49 44.75381 110.35219 32760 ft 475 kts 137°
2026-05-08 08:49 44.70829 110.41973 32758 ft 475 kts 136°
2026-05-08 08:50 44.66280 110.48730 32759 ft 476 kts 137°
2026-05-08 08:50 44.62496 110.54326 32760 ft 476 kts 137°
2026-05-08 08:51 44.57408 110.61802 32764 ft 476 kts 137°
2026-05-08 08:51 44.52759 110.68610 32763 ft 476 kts 137°
2026-05-08 08:52 44.48458 110.74913 32764 ft 477 kts 137°
2026-05-08 08:52 44.43918 110.81555 32764 ft 477 kts 137°
2026-05-08 08:53 44.40105 110.87116 32763 ft 477 kts 137°
2026-05-08 08:53 44.35523 110.93780 32767 ft 477 kts 137°
2026-05-08 08:54 44.30919 111.00458 32765 ft 478 kts 137°
2026-05-08 08:54 44.26321 111.07101 32768 ft 478 kts 137°
2026-05-08 08:55 44.21828 111.13576 32769 ft 478 kts 137°
2026-05-08 08:55 44.17240 111.20199 32769 ft 478 kts 137°
2026-05-08 08:56 44.12580 111.26902 32780 ft 478 kts 137°
2026-05-08 08:56 44.08004 111.33469 32779 ft 478 kts 137°
2026-05-08 08:57 44.03382 111.40083 32779 ft 478 kts 137°
2026-05-08 08:57 43.98700 111.46759 32788 ft 478 kts 137°
2026-05-08 08:58 43.94068 111.53352 32784 ft 477 kts 137°
2026-05-08 08:58 43.89465 111.59891 32780 ft 477 kts 137°
2026-05-08 08:59 43.84810 111.66482 32774 ft 477 kts 137°
2026-05-08 08:59 43.80147 111.73062 32765 ft 477 kts 137°
2026-05-08 09:00 43.75563 111.79513 32764 ft 478 kts 137°
2026-05-08 09:00 43.70938 111.86020 32767 ft 478 kts 137°
2026-05-08 09:01 43.66012 111.91846 32763 ft 473 kts 150°
2026-05-08 09:01 43.60405 111.96573 32757 ft 473 kts 152°
2026-05-08 09:02 43.54770 112.01301 32761 ft 475 kts 152°
2026-05-08 09:02 43.49126 112.06053 32770 ft 476 kts 152°
2026-05-08 09:03 43.43476 112.10839 32770 ft 478 kts 151°
2026-05-08 09:03 43.37648 112.15156 32768 ft 475 kts 158°
2026-05-08 09:04 43.31699 112.19134 32769 ft 476 kts 158°
2026-05-08 09:04 43.25877 112.23016 32771 ft 477 kts 157°
2026-05-08 09:05 43.19935 112.26999 32772 ft 477 kts 157°
2026-05-08 09:05 43.14346 112.30735 32779 ft 477 kts 157°
2026-05-08 09:06 43.08315 112.34650 32763 ft 471 kts 157°
2026-05-08 09:06 43.02379 112.38656 32777 ft 477 kts 157°
2026-05-08 09:07 42.96414 112.42645 32788 ft 477 kts 157°
2026-05-08 09:07 42.90960 112.46253 32790 ft 477 kts 157°
2026-05-08 09:08 42.84978 112.50184 32794 ft 477 kts 157°
2026-05-08 09:08 42.78999 112.54118 32803 ft 477 kts 157°
2026-05-08 09:09 42.73050 112.58025 32806 ft 478 kts 157°
2026-05-08 09:09 42.67153 112.61880 32813 ft 478 kts 157°
2026-05-08 09:10 42.61295 112.65709 32815 ft 478 kts 157°
2026-05-08 09:10 42.55331 112.69606 32826 ft 479 kts 157°
2026-05-08 09:11 42.49297 112.73543 32831 ft 479 kts 157°
2026-05-08 09:11 42.43799 112.77110 32840 ft 479 kts 157°
2026-05-08 09:12 42.37911 112.80932 32847 ft 479 kts 157°
2026-05-08 09:12 42.33334 112.83347 32592 ft 459 kts 186°
2026-05-08 09:13 42.31716 112.83077 32413 ft 438 kts 188°
2026-05-08 09:13 42.28797 112.83390 32647 ft 432 kts 168°
2026-05-08 09:13 42.25969 112.85151 31606 ft 463 kts 146°
2026-05-08 09:13 42.23416 112.87852 31373 ft 477 kts 143°
2026-05-08 09:14 42.21090 112.90380 31479 ft 481 kts 142°
2026-05-08 09:14 42.18625 112.93027 31631 ft 483 kts 146°
2026-05-08 09:14 42.16047 112.95072 31821 ft 480 kts 156°
2026-05-08 09:14 42.12970 112.97093 32066 ft 481 kts 157°
2026-05-08 09:15 42.10054 112.98969 32321 ft 480 kts 157°
2026-05-08 09:15 42.07110 113.00835 32590 ft 480 kts 158°
2026-05-08 09:15 42.04278 113.02612 32815 ft 481 kts 158°
2026-05-08 09:15 42.01244 113.04524 32892 ft 481 kts 158°
2026-05-08 09:16 41.95396 113.08255 32897 ft 481 kts 157°
2026-05-08 09:16 41.89406 113.12090 32905 ft 481 kts 157°
2026-05-08 09:17 41.83356 113.15927 32913 ft 482 kts 157°
2026-05-08 09:17 41.78234 113.19410 32899 ft 481 kts 147°
2026-05-08 09:18 41.72497 113.23786 32928 ft 482 kts 159°
2026-05-08 09:18 41.66356 113.27175 32930 ft 482 kts 161°
2026-05-08 09:19 41.60413 113.30499 32925 ft 483 kts 159°
2026-05-08 09:19 41.54381 113.34291 32929 ft 484 kts 156°
2026-05-08 09:20 41.48583 113.38109 32929 ft 484 kts 156°
2026-05-08 09:20 41.43069 113.41689 32931 ft 484 kts 157°
2026-05-08 09:21 41.37606 113.45146 32930 ft 484 kts 158°
2026-05-08 09:23 41.28072 113.50873 32763 ft 480 kts 160°
2026-05-08 09:23 41.25057 113.52647 32925 ft 482 kts 158°
2026-05-08 09:23 41.22290 113.54425 32959 ft 486 kts 156°